Dewpoint
67 61 56 51 44 46 44 44 49 48 45 53 53 53 53 58 53 53 67 69 69 68 69 69 73 71 72 74 73 73 72 70 69 69 69 68 68 66 67 66 65 65 64 64 64 63 62 64 65
61 58 49 44 38 38 42 44 47 51 52 55 52 51 51 58 63 66 67 70 69 69 69 68 72 72 73 72 72 71 70 69 68 68 68 67 66 66 66 64 64 63 63 62 63 63 66 71 71
52 52 45 41 39 32 34 47 50 54 55 55 54 57 55 59 64 66 69 70 69 69 70 70 72 72 73 72 72 70 69 68 68 68 67 66 66 66 64 64 64 63 63 64 66 66 68 71 72
46 44 39 35 29 34 40 49 52 52 51 57 55 56 62 65 64 67 70 69 68 68 67 71 72 73 73 73 71 69 68 68 68 67 66 66 66 65 64 64 65 66 66 66 67 68 70 71 71
37 37 33 29 27 31 34 47 52 51 50 54 57 56 60 67 68 69 70 68 66 66 67 68 72 74 73 72 70 68 68 68 68 67 66 66 65 63 64 64 64 64 64 65 68 68 71 71 71
33 31 23 19 19 22 34 50 52 49 50 56 57 58 62 68 68 69 69 67 65 65 67 67 72 74 73 71 69 68 68 68 67 66 65 65 64 63 64 64 64 65 65 67 70 71 71 70 70
31 28 21 19 18 32 49 52 50 49 48 54 58 58 64 66 68 68 68 67 65 66 66 66 67 72 72 71 69 68 67 67 67 66 66 65 64 64 64 65 66 66 66 69 71 71 70 69 69
28 23 17 13 16 42 51 51 51 48 49 53 56 57 62 66 67 67 67 66 66 66 65 65 67 68 68 68 69 68 67 67 67 66 66 66 64 62 63 65 67 66 67 70 70 70 70 69 69
22 19 10 10 10 28 51 50 53 53 51 54 57 59 62 67 67 66 65 65 66 66 65 65 66 70 68 66 66 67 67 66 66 66 67 63 58 57 59 65 65 65 68 69 70 69 69 68 68
20 18 12 13 13 21 50 49 50 50 49 52 58 63 66 66 66 64 63 63 62 64 64 64 68 68 69 66 66 63 62 62 64 64 66 61 62 62 58 62 64 63 69 69 69 68 68 64 60
16 14 14 11 12 17 50 50 53 49 46 49 55 63 65 66 66 64 63 61 61 62 64 64 68 70 69 67 67 63 63 63 64 65 65 65 64 64 61 59 59 58 64 64 64 62 59 61 60
10 12 12 10 25 45 49 51 50 50 47 52 57 63 65 65 65 64 63 62 61 63 64 65 67 69 71 67 66 63 62 63 62 63 64 65 63 63 63 59 59 59 57 62 62 60 63 62 62
12 11 10 9 9 46 50 47 47 49 50 57 59 63 64 65 65 65 63 64 63 62 65 66 67 69 70 69 67 64 62 61 61 61 63 64 64 64 62 61 59 59 55 57 59 61 61 61 61
15 14 12 5 29 39 37 46 49 49 55 56 59 62 63 64 64 65 64 64 64 64 65 65 65 68 70 69 68 66 64 63 62 64 64 64 63 63 60 59 58 59 58 55 59 61 60 59 59
17 10 6 7 22 30 39 40 41 49 55 55 58 60 62 63 63 64 64 65 66 65 66 67 66 68 70 70 68 66 63 63 64 65 65 64 64 64 64 59 58 57 59 60 57 59 60 59 58
10 10 5 7 12 35 30 21 44 55 56 54 57 57 57 59 60 62 64 66 66 67 67 67 63 65 69 70 69 66 64 64 65 64 64 63 62 62 61 58 57 57 58 57 57 57 58 57 57
14 5 8 13 31 36 31 32 48 54 56 55 56 56 55 56 56 59 60 61 65 67 68 67 65 64 68 70 69 70 68 67 66 65 65 63 60 59 59 57 57 59 57 57 56 56 57 57 57
12 11 13 14 28 37 38 42 49 52 54 55 55 57 57 56 57 59 60 61 63 66 68 68 66 67 68 69 68 67 68 66 67 64 64 62 60 57 58 56 57 57 55 53 55 59 57 55 54
16 17 16 18 38 39 43 44 46 48 52 52 53 55 57 58 58 61 62 62 63 66 67 67 67 68 68 67 66 65 66 67 65 65 64 63 60 58 59 55 57 57 55 56 59 57 57 54 56
19 19 18 35 40 42 44 44 46 47 49 51 51 51 52 55 58 58 60 64 64 66 67 67 68 68 68 67 67 66 66 64 64 64 63 62 59 58 57 57 57 58 57 59 58 58 53 53 54
21 17 27 33 43 44 43 41 46 44 46 49 51 54 55 57 59 59 59 64 64 66 67 67 68 68 68 68 66 66 66 65 64 62 61 61 59 59 60 59 59 58 56 54 59 58 58 51 53
19 17 29 37 33 27 39 22 38 46 46 46 48 53 53 58 58 56 57 61 64 65 68 68 68 68 68 68 66 66 64 63 63 64 64 62 61 60 59 60 60 59 55 57 55 56 56 56 50
21 24 34 34 24 33 37 28 28 42 43 41 43 50 53 57 58 55 60 62 65 66 67 68 68 68 67 67 67 65 65 64 63 64 65 65 64 62 60 60 60 60 56 57 58 57 58 54 51
27 27 30 29 25 18 28 31 25 38 40 42 43 47 52 56 59 62 65 65 65 65 66 68 68 68 67 67 67 67 67 65 63 64 63 62 62 62 62 60 60 61 59 58 56 58 58 57 55
27 28 22 22 22 22 35 29 30 35 37 42 41 46 53 58 62 63 64 65 65 66 66 66 67 68 68 67 67 67 67 67 67 65 63 63 62 62 63 63 61 59 60 59 57 57 56 56 55
26 28 19 19 19 18 34 30 31 37 44 43 45 49 55 60 62 63 64 65 65 65 66 66 67 68 67 67 67 68 68 66 65 66 63 63 62 62 64 62 62 61 60 60 59 55 54 55 55
25 23 29 30 30 24 30 33 34 41 41 42 45 47 53 58 60 62 62 64 63 65 66 66 66 67 67 67 68 68 68 67 67 67 66 64 64 62 63 62 62 62 61 61 60 55 55 55 55
26 27 25 28 28 22 27 31 28 35 39 42 43 45 47 54 59 61 63 64 64 65 65 67 67 67 67 68 68 68 68 68 68 68 66 65 64 63 63 63 62 62 61 61 60 56 56 55 54
22 23 29 32 29 23 22 27 36 35 36 39 43 45 48 51 54 59 62 62 62 63 64 66 67 67 68 68 67 68 68 68 68 67 66 66 65 64 63 62 61 60 60 60 60 60 57 54 54
23 25 33 24 30 30 28 25 32 35 33 39 39 40 40 47 51 55 57 57 60 60 61 65 67 67 67 66 66 66 68 68 68 67 67 67 66 65 64 63 62 61 61 60 58 57 56 55 54
Lifted_Index
2 3 3 2 0 -1 -1 -1 -1 -1 0 -0 -0 -0 -1 -2 -2 -2 -3 -3 -2 -2 -2 -2 -3 -3 -3 -3 -3 -2 -2 -1 -0 0 1 1 1 2 2 2 3 3 4 4 4 4 3 2 1
4 4 4 2 1 -0 -1 -1 -1 -1 -1 -1 -1 -1 -1 -2 -3 -3 -3 -3 -2 -2 -2 -2 -2 -3 -3 -3 -3 -2 -1 -1 -0 0 0 1 1 2 2 2 3 3 4 4 4 3 2 -0 -1
6 5 4 3 1 1 -0 -1 -2 -1 -1 -1 -2 -2 -2 -3 -4 -4 -4 -3 -3 -2 -2 -2 -2 -3 -3 -3 -2 -1 -1 -0 -0 0 1 1 1 2 2 2 2 3 3 2 2 1 -0 -2 -2
7 6 5 3 2 1 1 -1 -1 -1 -1 -2 -3 -3 -4 -4 -4 -5 -4 -4 -3 -2 -2 -2 -2 -3 -3 -3 -2 -1 -0 -0 -0 0 1 1 1 2 2 2 2 1 1 1 0 -1 -2 -2 -3
7 6 5 4 3 2 1 -0 -1 -1 -1 -3 -4 -4 -5 -5 -5 -5 -5 -4 -3 -2 -2 -2 -3 -4 -4 -3 -2 -1 -0 -0 -0 0 1 1 1 2 2 2 1 1 1 -0 -1 -2 -2 -3 -3
7 6 5 3 2 2 1 -0 -1 -1 -2 -3 -4 -5 -5 -6 -6 -5 -5 -4 -3 -2 -2 -2 -3 -4 -4 -3 -2 -1 -1 -1 -1 -0 1 1 2 2 2 2 1 1 0 -1 -2 -2 -3 -2 -2
7 6 4 3 2 1 -0 -1 -1 -1 -2 -3 -4 -5 -5 -6 -6 -6 -5 -4 -3 -3 -2 -2 -3 -4 -4 -3 -2 -1 -1 -1 -1 -1 0 1 2 2 2 2 1 1 -0 -2 -3 -3 -2 -2 -2
8 6 4 2 1 -0 -1 -1 -1 -1 -2 -3 -4 -5 -5 -6 -5 -6 -5 -4 -4 -3 -2 -2 -3 -4 -4 -3 -2 -2 -1 -2 -2 -1 -1 0 2 2 2 1 1 0 -1 -2 -3 -2 -2 -2 -1
7 6 4 3 1 -0 -2 -2 -2 -2 -2 -3 -4 -5 -6 -6 -5 -5 -5 -4 -4 -3 -3 -3 -4 -4 -4 -4 -3 -2 -2 -2 -2 -2 -2 -0 1 2 2 1 1 0 -1 -2 -2 -2 -1 -1 -0
7 6 4 3 2 -0 -2 -2 -2 -2 -2 -3 -5 -6 -6 -6 -6 -5 -5 -4 -4 -3 -3 -3 -4 -5 -5 -5 -3 -2 -2 -2 -2 -2 -2 -1 -0 0 1 1 1 1 -1 -2 -2 -1 0 1 1
6 5 5 4 3 0 -1 -2 -2 -2 -2 -3 -5 -6 -7 -6 -6 -5 -5 -4 -4 -4 -3 -4 -5 -6 -6 -6 -4 -3 -2 -2 -2 -2 -2 -2 -1 -0 1 2 2 2 1 -0 0 1 2 2 2
6 5 5 4 3 1 -1 -2 -2 -2 -2 -3 -5 -6 -7 -7 -6 -6 -5 -5 -4 -4 -4 -4 -5 -6 -7 -6 -5 -3 -2 -2 -2 -2 -2 -2 -1 -0 1 2 3 3 3 2 2 3 2 2 2
5 5 4 4 3 1 -0 -1 -2 -2 -3 -4 -5 -6 -7 -7 -7 -6 -6 -5 -5 -5 -5 -5 -5 -6 -7 -6 -5 -4 -2 -2 -2 -2 -1 -1 -1 -0 1 2 3 3 4 4 4 3 2 1 1
5 4 4 3 3 2 1 -0 -1 -2 -3 -4 -5 -6 -7 -7 -7 -7 -6 -6 -6 -6 -6 -5 -5 -6 -6 -6 -5 -4 -3 -2 -2 -2 -2 -1 -1 -0 0 1 3 3 4 5 5 4 2 1 1
4 4 3 3 2 2 2 1 -0 -2 -4 -5 -5 -6 -6 -6 -7 -7 -7 -7 -7 -6 -6 -5 -5 -5 -6 -6 -5 -4 -3 -3 -3 -3 -2 -1 -1 -0 0 1 3 4 4 5 5 4 3 2 2
4 3 3 2 2 3 2 1 -0 -2 -4 -5 -5 -5 -5 -5 -5 -5 -6 -6 -7 -7 -7 -6 -5 -5 -6 -6 -5 -4 -4 -3 -3 -3 -2 -2 -1 -0 1 2 3 4 4 5 5 5 3 2 2
4 3 3 2 2 2 2 1 -1 -3 -4 -4 -4 -4 -4 -4 -4 -3 -4 -5 -6 -7 -7 -7 -6 -5 -5 -6 -5 -5 -4 -4 -3 -3 -2 -2 -1 -0 1 1 3 4 5 5 5 5 4 3 3
4 3 2 2 2 2 1 -0 -1 -2 -3 -4 -4 -4 -4 -3 -3 -2 -3 -4 -5 -6 -6 -6 -6 -5 -5 -5 -5 -4 -4 -4 -3 -3 -2 -2 -1 -0 1 1 3 4 5 5 5 4 4 4 4
3 3 2 2 2 1 0 -1 -1 -2 -3 -3 -3 -3 -3 -3 -2 -3 -3 -3 -4 -5 -5 -5 -5 -5 -4 -4 -4 -4 -4 -3 -3 -3 -2 -2 -1 -0 0 1 2 4 5 5 5 5 5 5 5
3 2 2 2 1 1 -0 -1 -1 -2 -2 -2 -2 -2 -2 -2 -2 -3 -3 -3 -4 -4 -4 -4 -4 -4 -4 -3 -3 -3 -3 -3 -3 -3 -2 -2 -1 -1 0 1 2 4 4 5 5 5 5 5 5
2 2 1 1 1 0 -0 -1 -1 -1 -2 -2 -2 -2 -2 -2 -2 -2 -2 -3 -3 -4 -4 -4 -3 -3 -3 -3 -3 -3 -3 -3 -3 -3 -2 -2 -1 -1 0 1 2 3 4 5 5 5 5 5 5
2 2 1 1 1 1 1 1 0 -0 -1 -1 -1 -2 -2 -3 -2 -2 -2 -3 -3 -3 -3 -3 -3 -3 -3 -3 -3 -3 -2 -2 -3 -2 -2 -1 -1 -0 1 1 2 3 4 5 5 5 5 6 6
2 2 2 2 2 2 1 1 1 1 1 0 0 -1 -2 -3 -3 -3 -3 -3 -3 -3 -3 -3 -2 -2 -2 -2 -2 -2 -2 -2 -2 -2 -1 -1 -0 0 1 1 2 2 3 3 3 4 5 6 6
2 2 2 2 2 2 2 2 2 1 1 1 1 -0 -2 -3 -4 -5 -5 -5 -4 -3 -3 -3 -3 -3 -2 -3 -3 -3 -3 -3 -3 -2 -1 -0 0 0 1 1 2 2 2 2 2 3 4 6 6
2 1 1 1 2 2 2 2 1 1 1 1 0 -1 -2 -4 -5 -6 -6 -6 -5 -5 -4 -4 -4 -4 -3 -3 -3 -3 -3 -3 -3 -2 -1 -1 -0 -0 0 1 1 2 2 2 2 2 3 5 6
1 1 1 1 1 1 2 1 1 1 1 1 -0 -1 -3 -5 -6 -6 -6 -6 -6 -6 -5 -5 -5 -5 -4 -4 -4 -4 -4 -4 -4 -3 -2 -1 -1 -1 -0 0 1 1 1 1 1 2 2 4 5
1 1 1 1 1 1 1 1 1 1 1 0 -0 -1 -3 -5 -6 -6 -6 -6 -5 -5 -6 -5 -5 -5 -5 -5 -5 -5 -5 -5 -4 -3 -3 -2 -2 -2 -1 -1 -0 0 0 1 1 1 1 2 4
1 1 1 1 1 1 1 1 1 1 0 0 -1 -1 -2 -4 -5 -6 -6 -5 -5 -5 -5 -5 -6 -6 -6 -6 -6 -6 -5 -5 -5 -4 -3 -3 -3 -2 -2 -2 -1 -1 -1 -0 -0 0 0 1 2
1 1 1 1 1 1 0 0 0 0 0 -0 -1 -1 -2 -3 -5 -6 -6 -5 -5 -5 -5 -5 -6 -6 -6 -6 -6 -6 -6 -5 -5 -4 -4 -3 -3 -2 -2 -2 -2 -2 -1 -1 -1 -0 -0 1 1
1 1 1 1 1 1 0 0 0 0 0 0 -1 -1 -1 -2 -4 -5 -5 -5 -5 -5 -5 -5 -6 -6 -6 -5 -5 -6 -6 -6 -5 -5 -4 -3 -3 -2 -2 -2 -2 -2 -2 -2 -1 -1 -0 0 1